Regional Weather Roundup
Issued by NWS

Home | Current Version | Previous Version | Text Only | Print | Product List | Glossary On
Versions: 1 2 3 4 5 6 7 8 9 10 11 12 13 14 15 16 17 18 19 20 21 22 23 24 25 26 27 28 29 30 31 32 33 34 35 36 37 38 39 40 41 42 43 44 45 46 47 48 49 50
000
ASUS43 KFSD 030710
RWRSD

WEATHER ROUNDUP FOR SOUTH DAKOTA
NATIONAL WEATHER SERVICE SIOUX FALLS SD
200 AM CDT MON AUG 03 2015

NOTE: "FAIR" INDICATES FEW OR NO CLOUDS BELOW 12,000 FEET WITH NO
SIGNIFICANT WEATHER AND/OR OBSTRUCTIONS TO VISIBILITY.


SDZ001>005-009-010-012>017-030800-
NORTHWEST AND NORTH CENTRAL SOUTH DAKOTA

CITY           SKY/WX    TMP DP  RH WIND       PRES   REMARKS
BUFFALO          N/A     60  49  66 NE10      29.99S
FAITH            N/A     62  46  55 E6        30.02S
MOBRIDGE       CLEAR     58  55  90 NE5       29.97S
$$

SDZ012>016-024>037-041>051-057-063-072>074-030800-
SOUTHWEST AND SOUTH CENTRAL SOUTH DAKOTA

CITY           SKY/WX    TMP DP  RH WIND       PRES   REMARKS
RAPID CTY ARPT CLEAR     63  52  67 E3        30.04S
PIERRE         CLEAR     60  53  77 E6        29.96S
CUSTER         CLEAR     58  49  72 NE6       30.17S
ELLSWORTH AFB  CLEAR     69  52  55 CALM      30.04S
PHILIP         CLEAR     62  55  77 NE6       29.99S
PINE RIDGE     CLEAR     63  56  78 NE6       30.03S
WINNER         FAIR      69  58  67 E5        29.98S
$$

SDZ004>011-016>023-039-040-030800-
NORTHEAST SOUTH DAKOTA

CITY           SKY/WX    TMP DP  RH WIND       PRES   REMARKS
ABERDEEN       CLEAR     55  53  93 W5        29.96R
WATERTOWN      CLEAR     59  56  89 CALM      29.96R
BROOKINGS      CLEAR     57  54  88 NW3       29.98R
SISSETON         N/A     57  50  77 NW5       29.92R
$$

SDZ017-020-022-023-036>040-048>070-030800-
SOUTHEAST SOUTH DAKOTA

CITY           SKY/WX    TMP DP  RH WIND       PRES   REMARKS
SIOUX FALLS    CLEAR     59  57  93 CALM      29.95S
HURON          CLEAR     62  58  86 CALM      29.95R
CHAMBERLAIN    CLEAR     61  57  88 CALM      29.97S
MITCHELL       CLEAR     62  58  86 W3        29.95S
YANKTON        CLEAR     64  57  77 N6        29.93S
$$

ABBREVIATIONS USED IN REMARKS
   TC - TEMPERATURE IN CELSIUS
  WCI - WIND CHILL INDEX
   HX - HEAT INDEX
  VSB - VISIBILITY



USA.gov is the U.S. government's official web portal to all federal, state and local government web resources and services.